Regional Weather Roundup
Issued by NWS

Home | Current Version | Previous Version | Graphics & Text | Print | Product List | Glossary On
Versions: 1 2 3 4 5 6 7 8 9 10 11 12 13 14 15 16 17 18 19 20 21 22 23 24 25 26 27 28 29 30 31 32 33 34 35 36 37 38 39 40 41 42 43 44 45 46 47 48 49 50
000
ASUS45 KCYS 261510
RWRWY

WYOMING REGIONAL WEATHER ROUNDUP
NATIONAL WEATHER SERVICE CHEYENNE WY
900 AM MDT WED JUL 26 2017

NOTE:  "FAIR" INDICATES FEW OR NO CLOUDS BELOW 12,000 FEET
WITH NO SIGNIFICANT WEATHER AND/OR OBSTRUCTIONS TO VISIBILITY.

WYZ001-261600-
YELLOWSTONE NATIONAL PARK

CITY           SKY/WX    TMP DP  RH WIND       PRES   REMARKS
LK YELLOWSTONE   N/A     52  51  97 CALM      30.44R
W YELLOWSTONE  NOT AVBL

$$
WYZ002>013-054>058-071-098>099-261600-
NORTHERN WYOMING

CITY           SKY/WX    TMP DP  RH WIND       PRES   REMARKS
JACKSON        SUNNY     55  50  82 CALM      30.35S
CODY           FAIR      66  51  58 CALM      30.26R
GREYBULL       FAIR      68  54  60 CALM      30.20S
WORLAND        FAIR      66  56  70 N5        30.21S
SHERIDAN       FAIR      68  59  73 N5        30.20R
BUFFALO        FAIR      69  56  62 S12       30.27R
GILLETTE       FAIR      68  62  81 S16       30.23R
HULETT         FAIR      70  59  68 SW7       30.24S
NEWCASTLE      DRIZZLE   63  57  82 NW7       30.24S

$$
WYZ014>020-022>026-101>103-261600-
CENTRAL WYOMING

CITY           SKY/WX    TMP DP  RH WIND       PRES   REMARKS
BIG PINEY      PTSUNNY   59  51  75 E6        30.38R
PINEDALE       FAIR      59  48  67 CALM      30.39S
DUBOIS         FAIR      59  45  58 CALM      30.37S
LANDER         FAIR      66  52  60 VRB3      30.28R
RIVERTON       FAIR      67  52  58 VRB5      30.29R
CASPER         LGT RAIN  59  57  93 E15       30.29R
DOUGLAS        LGT RAIN  61  55  81 NE3       30.29R

$$
WYZ021-027>030-104>119-261600-
SOUTHERN WYOMING

CITY           SKY/WX    TMP DP  RH WIND       PRES   REMARKS
EVANSTON       CLOUDY    59  58  96 S6        30.37R
KEMMERER         N/A     63  50  63 CALM      30.38S
FORT BRIDGER   CLOUDY    63  54  72 CALM      30.39S
ROCK SPRINGS   FAIR      63  53  70 E7        30.35S
RAWLINS        CLOUDY    61  56  83 W6        30.34R
SARATOGA       CLOUDY    61  61 100 NW5       30.37R
LARAMIE        RAIN      58  57  97 NE7       30.36R FOG
CHEYENNE       CLOUDY    61  58  90 N6        30.31R
TORRINGTON     PTSUNNY   65  60  84 NW12      30.21S
PINE BLUFFS    CLOUDY    63  59  88 N12       30.25S

$$



USA.gov is the U.S. government's official web portal to all federal, state and local government web resources and services.